This is the latest recevied weather packets stored in our database for station/object N4DWK. If no packets are shown the sender has not sent any weather packets the latest 10 day(s).
| Time | Temp. | Humidity | Pressure | Rain* | Wind** | Luminosity | Snow |
|---|---|---|---|---|---|---|---|
| 1777559705 | 17.22° C | 75% | 1009.9 hPa | 0 mm | - | 148 W/m² | - |
| 1777559405 | 17.22° C | 78% | 1009.9 hPa | 0 mm | - | 116 W/m² | - |
| 1777559105 | 17.22° C | 82% | 1009.8 hPa | 0 mm | - | 118 W/m² | - |
| 1777558805 | 17.22° C | 85% | 1009.7 hPa | 0 mm | - | 114 W/m² | - |
| 1777558504 | 16.67° C | 85% | 1009.9 hPa | 0 mm | - | 130 W/m² | - |
| 1777558205 | 16.67° C | 85% | 1009.8 hPa | 0 mm | - | 91 W/m² | - |
| 1777557904 | 16.67° C | 85% | 1010.1 hPa | 0 mm | - | 86 W/m² | - |
| 1777557605 | 16.67° C | 86% | 1010.1 hPa | 0 mm | - | 107 W/m² | - |
| 1777557305 | 16.11° C | 86% | 1010.1 hPa | 0 mm | - | 95 W/m² | - |
| 1777557005 | 16.11° C | 87% | 1010.3 hPa | 0 mm | - | 79 W/m² | - |
| 1777556705 | 16.11° C | 87% | 1010.2 hPa | 0 mm | - | 86 W/m² | - |
| 1777556405 | 16.11° C | 87% | 1010.1 hPa | 0 mm | - | 104 W/m² | - |
| 1777556105 | 16.11° C | 87% | 1009.9 hPa | 0 mm | - | 77 W/m² | - |
| 1777555804 | 15.56° C | 87% | 1009.9 hPa | 0 mm | - | 76 W/m² | - |
| 1777555504 | 15.56° C | 88% | 1010.1 hPa | 0 mm | - | 74 W/m² | - |
| 1777555205 | 15.56° C | 89% | 1010 hPa | 0 mm | - | 67 W/m² | - |
| 1777554904 | 15.56° C | 90% | 1010.1 hPa | 0 mm | - | 72 W/m² | - |
| 1777554604 | 15.56° C | 91% | 1009.8 hPa | 0 mm | - | 74 W/m² | - |
| 1777554304 | 15° C | 92% | 1009.6 hPa | 0 mm | - | 74 W/m² | - |
| 1777554004 | 15° C | 93% | 1009.5 hPa | 0 mm | - | 79 W/m² | - |
| 1777553705 | 15° C | 93% | 1009.2 hPa | 0 mm | - | 83 W/m² | - |
| 1777553405 | 15° C | 94% | 1008.8 hPa | 0 mm | - | 69 W/m² | - |
| 1777553104 | 15° C | 94% | 1008.7 hPa | 0 mm | - | 91 W/m² | - |
| 1777552804 | 15° C | 94% | 1008.3 hPa | 0 mm | - | 42 W/m² | - |
| 1777552504 | 15° C | 94% | 1008.6 hPa | 0 mm | - | 54 W/m² | - |
* Rain latest hour (hover to see other rain measurements)
** Current wind speed in m/s (hover to see current wind gust speed)